30.06.2024;16:00;88
30.06.2024;15:00;90
30.06.2024;14:00;92
30.06.2024;13:00;95
30.06.2024;12:00;88
30.06.2024;11:00;84
30.06.2024;10:00;81
30.06.2024;09:00;78
30.06.2024;08:00;81
30.06.2024;07:00;85
30.06.2024;06:00;88
30.06.2024;05:00;73
30.06.2024;04:00;61
30.06.2024;03:00;46
30.06.2024;02:00;52
30.06.2024;01:00;47
30.06.2024;00:00;65
29.06.2024;23:00;69
29.06.2024;22:00;71
29.06.2024;21:00;85
29.06.2024;20:00;91
29.06.2024;19:00;97
29.06.2024;18:00;105
29.06.2024;17:00;102
29.06.2024;16:00;108
29.06.2024;15:00;107
29.06.2024;14:00;103
29.06.2024;13:00;99
29.06.2024;12:00;94
29.06.2024;11:00;83
29.06.2024;10:00;64
29.06.2024;09:00;54
29.06.2024;08:00;44
29.06.2024;07:00;29
29.06.2024;06:00;22
29.06.2024;05:00;25
29.06.2024;04:00;24
29.06.2024;03:00;27
29.06.2024;02:00;32
29.06.2024;01:00;24
29.06.2024;00:00;43
28.06.2024;23:00;73
28.06.2024;22:00;88
28.06.2024;21:00;103
28.06.2024;20:00;107
28.06.2024;19:00;108
28.06.2024;18:00;107
28.06.2024;17:00;107
